Orbital Elements at Epoch 2459200.5 (2020-Dec-17.0) TDB
Reference: JPL 17 (heliocentric ecliptic J2000)
Element | Value | Uncertainty (1-sigma) | Units |
e | .3051156989650005 | 8.2156e-08 | |
a | 2.602164847489047 | 3.1179e-08 | au |
q | 1.808203501225272 | 2.3197e-07 | au |
i | 4.419015932953644 | 7.1966e-06 | deg |
node | 210.3139841950413 | 5.917e-05 | deg |
peri | 78.83935118657546 | 6.1824e-05 | deg |
M | 353.2567410602885 | 2.6177e-05 | deg |
tp | 2459229.218911246380 (2021-Jan-14.71891125) | 0.00011195 | TDB |
period | 1533.206442334692 4.20 | 2.7557e-05 7.545e-08 | d yr |
n | .2348020397382427 | 4.2201e-09 | deg/d |
Q | 3.396126193752821 | 4.0693e-08 | au |
|
| | Orbit Determination Parameters
Additional Information
|